ATLAS 2AS CENTAUR R/B

基本信息
目录编号:
26858
目录名称:
ATLAS 2AS CENTAUR R/B
国际标识:
2001-026B
轨道中心:
EARTH
物体状态:
在轨
发射日期:
2001-06-19 UTC
国别:
美国 (US)
轨道信息
数据来源: 国际轨道数据
星历时间: 2026-07-13T03:16:12+0800
半长轴: 16338.361km
偏心率: 0.0094014
轨道倾角: 45.035°
近地点辐角: 123.158°
升交点赤经: 337.104°
平近点角: 238.704°
近地点: 9806.62km
远地点: 10113.828km
周期: 346.396分钟
每日圈数: 4.157096
详细信息
发射场:
AFETR
轨道高度:
MEO
数据来源:
AOE Integration Group
参考系:
TEME
时间系统:
UTC
历元类型:
SGP4
2D轨道图
3D轨道图
轨道高度分析图
轨道倾角分析图
轨道综合分析图
查看轨道综合分析图